Weather History for Fort Madison, IA

Change the Weather History Date:

Tuesday, November 1, 2011

  Actual Average Record
Temperature  
Mean Temperature 58 °F -  
Max Temperature 75 °F 61 °F 82 °F (2000)
Min Temperature 42 °F 42 °F 24 °F (1965)
Degree Days  
Heating Degree Days 6    
Growing Degree Days 8 (Base 50)    
Moisture  
Dew Point 34 °F    
Average Humidity 45    
Maximum Humidity 61    
Minimum Humidity 27    
Precipitation  
Precipitation 0.00 in - - ()
Sea Level Pressure  
Sea Level Pressure 30.02 in    
Wind  
Wind Speed 11 mph (South)    
Max Wind Speed 17 mph    
Max Gust Speed 24 mph    
Visibility 10 miles    
Events      
Averages and records for this station are not official NWS values.
T = Trace of Precipitation, MM = Missing Value Source: NWS Daily Summary

Daily Weather History Graph

Daily Weather History Graph

Search for Another Location

Airport:

Trip Planner

Search our weather history database for the weather conditions in past years. The results will help you decide how hot, cold, wet, or windy it might be!

Date:

Astronomy

Nov. 01, 2011 Rise Set
Actual Time 7:35 AM CDT 6:01 PM CDT
Civil Twilight 7:06 AM CDT 6:30 PM CDT
Nautical Twilight 6:34 AM CDT 7:02 PM CDT
Astronomical Twilight 6:02 AM CDT 7:34 PM CDT
Moon 1:22 PM CDT (11/1) 11:44 PM CDT (11/1)
Length of Visible Light 11h 23m
Length of Day
10h 26m
Waxing Crescent, 40% of the Moon is Illuminated
Nov 1
Waxing Crescent
Nov 2
First Quarter
Nov 10
Full
Nov 18
Last Quarter
Nov 25
New

Hourly Weather History & Observations

Time (CDT) Temp. Windchill Dew Point Humidity Pressure Visibility Wind Dir Wind Speed Gust Speed Precip Events Conditions
12:15 AM 46.4 °F 41.9 °F 28.4 °F 50% 30.08 in 10.0 mi SSE 9.2 mph - N/A   Clear
12:35 AM 48.2 °F - 28.4 °F 46% 30.08 in 10.0 mi SSE 11.5 mph 17.3 mph N/A   Clear
12:55 AM 46.4 °F 42.4 °F 28.4 °F 50% 30.08 in 10.0 mi SSE 8.1 mph - N/A   Clear
1:15 AM 46.4 °F 41.9 °F 28.4 °F 50% 30.08 in 10.0 mi SSE 9.2 mph - N/A   Clear
1:35 AM 46.4 °F 41.9 °F 28.4 °F 50% 30.07 in 10.0 mi SSE 9.2 mph - N/A   Clear
1:55 AM 46.4 °F 41.9 °F 28.4 °F 50% 30.07 in 10.0 mi SSE 9.2 mph - N/A   Clear
2:15 AM 46.4 °F 41.1 °F 28.4 °F 50% 30.06 in 10.0 mi South 11.5 mph 16.1 mph N/A   Clear
2:35 AM 46.4 °F 41.1 °F 28.4 °F 50% 30.06 in 10.0 mi SSE 11.5 mph - N/A   Clear
2:55 AM 46.4 °F 41.5 °F 28.4 °F 50% 30.06 in 10.0 mi SSE 10.4 mph 16.1 mph N/A   Clear
3:15 AM 44.6 °F 38.4 °F 28.4 °F 53% 30.05 in 10.0 mi South 12.7 mph 17.3 mph N/A   Clear
3:35 AM 44.6 °F 38.4 °F 28.4 °F 53% 30.05 in 10.0 mi SSE 12.7 mph - N/A   Clear
3:55 AM 44.6 °F 38.1 °F 28.4 °F 53% 30.04 in 10.0 mi South 13.8 mph - N/A   Clear
4:15 AM 44.6 °F 38.4 °F 28.4 °F 53% 30.04 in 10.0 mi South 12.7 mph - N/A   Clear
4:35 AM 44.6 °F 39.2 °F 28.4 °F 53% 30.04 in 10.0 mi South 10.4 mph - N/A   Clear
5:15 AM 42.8 °F 37.0 °F 28.4 °F 57% 30.04 in 10.0 mi South 10.4 mph - N/A   Clear
5:35 AM 42.8 °F 37.5 °F 28.4 °F 57% 30.04 in 10.0 mi South 9.2 mph - N/A   Clear
5:55 AM 42.8 °F 37.0 °F 30.2 °F 61% 30.04 in 10.0 mi South 10.4 mph - N/A   Clear
6:15 AM 42.8 °F 37.0 °F 30.2 °F 61% 30.04 in 10.0 mi South 10.4 mph - N/A   Clear
6:35 AM 42.8 °F 38.0 °F 30.2 °F 61% 30.04 in 10.0 mi South 8.1 mph - N/A   Clear
6:55 AM 42.8 °F 37.0 °F 30.2 °F 61% 30.03 in 10.0 mi South 10.4 mph - N/A   Clear
7:15 AM 42.8 °F 37.5 °F 30.2 °F 61% 30.03 in 10.0 mi South 9.2 mph - N/A   Clear
7:35 AM 42.8 °F 37.0 °F 30.2 °F 61% 30.04 in 10.0 mi South 10.4 mph - N/A   Clear
8:15 AM 44.6 °F 39.7 °F 32.0 °F 61% 30.05 in 10.0 mi South 9.2 mph - N/A   Clear
8:35 AM 44.6 °F 39.7 °F 32.0 °F 61% 30.06 in 10.0 mi South 9.2 mph - N/A   Clear
9:15 AM 48.2 °F - 33.8 °F 58% 30.06 in 10.0 mi South 9.2 mph - N/A   Clear
9:35 AM 51.8 °F - 33.8 °F 50% 30.05 in 10.0 mi South 12.7 mph - N/A   Clear
9:55 AM 53.6 °F - 35.6 °F 51% 30.05 in 10.0 mi South 12.7 mph - N/A   Clear
10:15 AM 55.4 °F - 35.6 °F 47% 30.05 in 10.0 mi South 12.7 mph - N/A   Clear
10:35 AM 59.0 °F - 37.4 °F 45% 30.05 in 10.0 mi SSW 10.4 mph - N/A   Clear
10:55 AM 60.8 °F - 37.4 °F 42% 30.05 in 10.0 mi SSW 13.8 mph 20.7 mph N/A   Clear
11:15 AM 62.6 °F - 37.4 °F 39% 30.05 in 10.0 mi SSW 15.0 mph - N/A   Clear
11:35 AM 62.6 °F - 37.4 °F 39% 30.03 in 10.0 mi South 13.8 mph - N/A   Clear
12:15 PM 66.2 °F - 39.2 °F 37% 30.02 in 10.0 mi South 15.0 mph 21.9 mph N/A   Clear
12:35 PM 68.0 °F - 39.2 °F 35% 30.01 in 10.0 mi South 12.7 mph 16.1 mph N/A   Clear
12:55 PM 69.8 °F - 39.2 °F 33% 30.00 in 10.0 mi South 11.5 mph - N/A   Clear
1:15 PM 71.6 °F - 39.2 °F 31% 29.99 in 10.0 mi South 13.8 mph - N/A   Clear
1:35 PM 71.6 °F - 39.2 °F 31% 29.98 in 10.0 mi South 13.8 mph - N/A   Clear
2:15 PM 73.4 °F - 39.2 °F 29% 29.95 in 10.0 mi South 15.0 mph 20.7 mph N/A   Clear
2:35 PM 73.4 °F - 39.2 °F 29% 29.96 in 10.0 mi South 10.4 mph 20.7 mph N/A   Clear
2:55 PM 73.4 °F - 39.2 °F 29% 29.95 in 10.0 mi South 13.8 mph 23.0 mph N/A   Clear
3:15 PM 73.4 °F - 39.2 °F 29% 29.95 in 10.0 mi SSW 12.7 mph 20.7 mph N/A   Clear
3:35 PM 73.4 °F - 39.2 °F 29% 29.94 in 10.0 mi South 16.1 mph 20.7 mph N/A   Clear
3:55 PM 75.2 °F - 39.2 °F 27% 29.94 in 10.0 mi South 13.8 mph 20.7 mph N/A   Clear
4:15 PM 75.2 °F - 41.0 °F 29% 29.93 in 10.0 mi South 16.1 mph 21.9 mph N/A   Clear
4:35 PM 73.4 °F - 41.0 °F 31% 29.93 in 10.0 mi South 17.3 mph 24.2 mph N/A   Clear
4:55 PM 73.4 °F - 41.0 °F 31% 29.93 in 10.0 mi South 15.0 mph 21.9 mph N/A   Clear
5:15 PM 73.4 °F - 41.0 °F 31% 29.92 in 10.0 mi South 16.1 mph 24.2 mph N/A   Clear
5:35 PM 71.6 °F - 41.0 °F 33% 29.93 in 10.0 mi South 11.5 mph - N/A   Clear
5:55 PM 71.6 °F - 41.0 °F 33% 29.93 in 10.0 mi South 10.4 mph 17.3 mph N/A   Clear
6:35 PM 69.8 °F - 41.0 °F 35% 29.95 in 10.0 mi South 9.2 mph - N/A   Clear
6:55 PM 68.0 °F - 41.0 °F 37% 29.95 in 10.0 mi South 10.4 mph - N/A   Clear
7:15 PM 66.2 °F - 41.0 °F 40% 29.96 in 10.0 mi SSE 6.9 mph - N/A   Clear
7:35 PM 66.2 °F - 39.2 °F 37% 29.96 in 10.0 mi SSE 9.2 mph - N/A   Clear
7:55 PM 64.4 °F - 39.2 °F 40% 29.96 in 10.0 mi SSE 10.4 mph - N/A   Clear
8:15 PM 64.4 °F - 39.2 °F 40% 29.96 in 10.0 mi South 9.2 mph - N/A   Clear
8:35 PM 62.6 °F - 39.2 °F 42% 29.97 in 10.0 mi South 8.1 mph - N/A   Clear
8:55 PM 60.8 °F - 39.2 °F 45% 29.98 in 10.0 mi South 6.9 mph - N/A   Clear
9:15 PM 60.8 °F - 39.2 °F 45% 29.98 in 10.0 mi South 6.9 mph - N/A   Clear
9:35 PM 60.8 °F - 39.2 °F 45% 29.99 in 10.0 mi South 5.8 mph - N/A   Clear
9:55 PM 59.0 °F - 37.4 °F 45% 29.99 in 10.0 mi South 5.8 mph - N/A   Clear
10:15 PM 60.8 °F - 37.4 °F 42% 29.98 in 10.0 mi South 8.1 mph - N/A   Clear
10:35 PM 60.8 °F - 37.4 °F 42% 29.98 in 10.0 mi South 10.4 mph - N/A   Clear
10:55 PM 62.6 °F - 37.4 °F 39% 29.99 in 10.0 mi South 9.2 mph - N/A   Clear
11:15 PM 62.6 °F - 37.4 °F 39% 29.99 in 10.0 mi South 9.2 mph - N/A   Clear
11:35 PM 62.6 °F - 37.4 °F 39% 29.99 in 10.0 mi South 11.5 mph 20.7 mph N/A   Clear
11:55 PM 62.6 °F - 35.6 °F 37% 29.99 in 10.0 mi South 13.8 mph - N/A   Clear